Location: Oberkirch
(48.5323°N, 8.0787°E)
Time: 00:26:34
(UTC+00:00)

CUTE 1.7 + AOD 2 - Pass Details

Date: 15 March 2026
Orbit: 535 x 545 km, 97.8° (Epoch: 14 April)

Event Time Altitude Azimuth Distance (km) Brightness Sun altitude
Rises 02:38:15 0° 33° (NNE) 2,719 ? -29.5°
Reaches altitude 10° 02:41:41 10° 65° (ENE) 1,821 ? -29.1°
Maximum altitude 02:43:13 12° 89° (E) 1,695 ? -28.9°
Drops below altitude 10° 02:44:45 10° 112° (ESE) 1,816 ? -28.7°
Enters shadow 02:46:52 - 135° (SE) 2,302 ? -28.4°
